QPF
0.00 0.00 0.00 0.00 0.00 0.00 0.00 0.00 0.00 0.00 0.00 0.00 0.00 0.00 0.00 0.00 0.00 0.00 0.01 0.01 0.02 0.03 0.02 0.01 0.02 0.04 0.05 0.01 0.00 0.00 0.00 0.00 0.00 0.00 0.00 0.00 0.00 0.00 0.00 0.00 0.00 0.00 0.00
0.00 0.00 0.00 0.00 0.00 0.00 0.00 0.00 0.00 0.00 0.00 0.00 0.00 0.00 0.00 0.00 0.00 0.00 0.00 0.03 0.04 0.07 0.07 0.05 0.02 0.00 0.00 0.00 0.00 0.00 0.00 0.00 0.00 0.00 0.00 0.00 0.00 0.00 0.00 0.00 0.00 0.00 0.00
0.00 0.00 0.00 0.00 0.00 0.00 0.00 0.00 0.00 0.00 0.00 0.00 0.00 0.00 0.00 0.00 0.00 0.00 0.00 0.02 0.05 0.08 0.15 0.17 0.14 0.10 0.05 0.01 0.00 0.00 0.00 0.00 0.00 0.00 0.00 0.00 0.00 0.00 0.00 0.00 0.00 0.00 0.00
0.00 0.00 0.00 0.00 0.00 0.00 0.00 0.00 0.00 0.00 0.00 0.00 0.00 0.00 0.00 0.00 0.00 0.00 0.00 0.01 0.05 0.08 0.10 0.10 0.10 0.06 0.03 0.02 0.00 0.00 0.00 0.00 0.00 0.00 0.00 0.00 0.00 0.01 0.00 0.00 0.00 0.00 0.00
0.00 0.00 0.00 0.00 0.00 0.00 0.00 0.00 0.00 0.00 0.00 0.00 0.00 0.00 0.00 0.00 0.00 0.00 0.00 0.04 0.09 0.11 0.16 0.14 0.12 0.07 0.03 0.01 0.00 0.00 0.00 0.00 0.00 0.00 0.00 0.00 0.01 0.02 0.02 0.01 0.00 0.00 0.00
0.00 0.00 0.00 0.00 0.00 0.00 0.00 0.00 0.00 0.00 0.00 0.00 0.01 0.02 0.00 0.00 0.00 0.00 0.00 0.03 0.14 0.17 0.16 0.10 0.11 0.05 0.01 0.00 0.00 0.00 0.00 0.00 0.00 0.00 0.01 0.01 0.01 0.01 0.01 0.01 0.00 0.00 0.00
0.00 0.00 0.00 0.00 0.00 0.00 0.00 0.00 0.00 0.00 0.00 0.00 0.00 0.00 0.00 0.00 0.00 0.00 0.00 0.03 0.07 0.08 0.20 0.07 0.03 0.03 0.00 0.00 0.00 0.01 0.01 0.01 0.01 0.02 0.03 0.03 0.03 0.03 0.05 0.06 0.04 0.03 0.01
0.00 0.00 0.00 0.00 0.00 0.00 0.00 0.00 0.00 0.00 0.00 0.00 0.00 0.00 0.00 0.00 0.00 0.00 0.00 0.02 0.20 0.17 0.04 0.01 0.04 0.01 0.00 0.00 0.00 0.00 0.00 0.00 0.00 0.00 0.01 0.07 0.16 0.20 0.22 0.27 0.26 0.24 0.13
0.00 0.00 0.00 0.00 0.00 0.00 0.00 0.00 0.00 0.00 0.00 0.00 0.00 0.00 0.01 0.00 0.00 0.00 0.00 0.00 0.10 0.30 0.17 0.02 0.00 0.00 0.00 0.00 0.00 0.00 0.00 0.00 0.00 0.01 0.01 0.02 0.03 0.06 0.17 0.28 0.32 0.35 0.22
0.00 0.00 0.00 0.00 0.00 0.00 0.00 0.00 0.00 0.00 0.00 0.00 0.00 0.00 0.00 0.00 0.00 0.00 0.00 0.01 0.01 0.02 0.03 0.00 0.00 0.00 0.00 0.00 0.00 0.00 0.00 0.00 0.01 0.04 0.05 0.11 0.14 0.12 0.15 0.16 0.13 0.11 0.11
0.00 0.00 0.00 0.00 0.00 0.00 0.00 0.00 0.00 0.00 0.00 0.00 0.00 0.00 0.00 0.00 0.00 0.00 0.00 0.00 0.00 0.00 0.00 0.00 0.00 0.00 0.00 0.00 0.00 0.00 0.00 0.00 0.00 0.02 0.03 0.05 0.06 0.05 0.05 0.03 0.01 0.00 0.00
0.00 0.00 0.00 0.00 0.00 0.00 0.00 0.00 0.00 0.00 0.00 0.00 0.00 0.00 0.00 0.00 0.00 0.00 0.00 0.00 0.00 0.00 0.00 0.00 0.00 0.00 0.00 0.00 0.00 0.00 0.01 0.01 0.01 0.00 0.00 0.00 0.00 0.00 0.00 0.00 0.00 0.00 0.00
0.00 0.00 0.00 0.00 0.00 0.00 0.00 0.00 0.00 0.00 0.00 0.00 0.00 0.00 0.00 0.00 0.00 0.00 0.00 0.00 0.00 0.00 0.00 0.00 0.00 0.00 0.00 0.00 0.00 0.00 0.00 0.00 0.00 0.00 0.00 0.00 0.00 0.00 0.00 0.00 0.00 0.00 0.00
0.00 0.00 0.00 0.00 0.00 0.00 0.00 0.00 0.00 0.00 0.00 0.00 0.00 0.00 0.00 0.00 0.00 0.00 0.00 0.00 0.00 0.00 0.00 0.00 0.00 0.00 0.00 0.00 0.00 0.00 0.00 0.00 0.00 0.00 0.00 0.00 0.00 0.00 0.00 0.00 0.00 0.00 0.00
0.00 0.00 0.00 0.00 0.00 0.00 0.00 0.00 0.00 0.00 0.00 0.00 0.00 0.00 0.00 0.00 0.00 0.00 0.00 0.00 0.00 0.00 0.00 0.00 0.00 0.00 0.00 0.00 0.00 0.00 0.00 0.00 0.00 0.00 0.00 0.00 0.00 0.00 0.00 0.00 0.00 0.00 0.00
0.00 0.00 0.00 0.00 0.00 0.00 0.00 0.00 0.00 0.00 0.00 0.00 0.00 0.00 0.00 0.00 0.00 0.00 0.00 0.00 0.00 0.00 0.00 0.00 0.00 0.00 0.00 0.00 0.00 0.00 0.00 0.00 0.00 0.00 0.00 0.00 0.00 0.00 0.00 0.00 0.00 0.00 0.00
0.00 0.00 0.00 0.00 0.00 0.00 0.00 0.00 0.00 0.00 0.00 0.00 0.00 0.00 0.00 0.00 0.00 0.00 0.00 0.00 0.00 0.00 0.00 0.00 0.00 0.00 0.00 0.00 0.00 0.00 0.00 0.00 0.00 0.00 0.00 0.00 0.00 0.00 0.00 0.00 0.00 0.00 0.00
0.00 0.00 0.00 0.00 0.00 0.00 0.00 0.00 0.00 0.00 0.00 0.00 0.00 0.00 0.00 0.00 0.00 0.00 0.00 0.00 0.00 0.00 0.00 0.00 0.00 0.00 0.00 0.00 0.00 0.00 0.00 0.00 0.00 0.00 0.00 0.00 0.00 0.00 0.00 0.00 0.00 0.00 0.00
0.00 0.00 0.00 0.00 0.00 0.00 0.00 0.00 0.00 0.00 0.00 0.00 0.00 0.00 0.00 0.00 0.00 0.00 0.00 0.00 0.00 0.00 0.00 0.00 0.00 0.00 0.00 0.00 0.00 0.00 0.00 0.00 0.00 0.00 0.00 0.00 0.00 0.00 0.00 0.00 0.00 0.00 0.00
0.00 0.00 0.00 0.00 0.00 0.00 0.00 0.00 0.00 0.00 0.00 0.00 0.00 0.00 0.00 0.00 0.00 0.00 0.00 0.00 0.00 0.00 0.00 0.00 0.00 0.00 0.00 0.00 0.00 0.00 0.00 0.00 0.00 0.00 0.00 0.00 0.00 0.00 0.01 0.01 0.00 0.00 0.00
0.00 0.00 0.00 0.00 0.00 0.00 0.00 0.00 0.00 0.00 0.00 0.00 0.00 0.00 0.00 0.00 0.00 0.00 0.00 0.00 0.00 0.00 0.00 0.00 0.00 0.00 0.00 0.00 0.00 0.00 0.00 0.00 0.00 0.00 0.00 0.00 0.00 0.00 0.01 0.01 0.00 0.00 0.01
0.00 0.00 0.00 0.00 0.00 0.00 0.00 0.00 0.00 0.00 0.00 0.00 0.00 0.00 0.00 0.00 0.00 0.00 0.00 0.00 0.00 0.00 0.00 0.00 0.00 0.00 0.00 0.00 0.00 0.00 0.00 0.00 0.00 0.00 0.00 0.00 0.00 0.00 0.00 0.00 0.01 0.01 0.01
0.00 0.00 0.00 0.00 0.00 0.00 0.00 0.00 0.00 0.00 0.00 0.00 0.00 0.00 0.00 0.00 0.00 0.00 0.00 0.00 0.00 0.00 0.00 0.00 0.00 0.00 0.00 0.00 0.00 0.00 0.00 0.01 0.00 0.00 0.00 0.01 0.00 0.00 0.00 0.00 0.00 0.00 0.00
0.00 0.00 0.00 0.00 0.00 0.00 0.00 0.00 0.00 0.00 0.00 0.00 0.00 0.00 0.00 0.00 0.00 0.00 0.00 0.00 0.00 0.00 0.00 0.00 0.00 0.00 0.00 0.00 0.00 0.00 0.00 0.00 0.00 0.00 0.00 0.00 0.00 0.00 0.00 0.00 0.00 0.00 0.00
0.00 0.00 0.00 0.00 0.00 0.00 0.00 0.00 0.00 0.00 0.00 0.00 0.00 0.00 0.00 0.00 0.00 0.00 0.00 0.00 0.00 0.00 0.00 0.00 0.00 0.00 0.00 0.00 0.00 0.00 0.00 0.00 0.00 0.00 0.00 0.00 0.00 0.00 0.00 0.00 0.00 0.00 0.00
0.00 0.00 0.00 0.00 0.00 0.00 0.00 0.00 0.00 0.00 0.00 0.00 0.00 0.00 0.00 0.00 0.00 0.00 0.00 0.00 0.00 0.00 0.00 0.00 0.00 0.00 0.00 0.00 0.00 0.00 0.00 0.00 0.00 0.00 0.00 0.00 0.00 0.00 0.00 0.00 0.00 0.00 0.00
MSLP
1019.10 1018.71 1018.50 1018.45 1018.35 1018.14 1017.83 1017.54 1017.07 1016.18 1015.86 1014.94 1014.33 1013.73 1013.04 1012.46 1012.01 1011.64 1011.37 1011.31 1011.32 1011.27 1011.53 1011.91 1011.82 1011.94 1012.31 1012.58 1012.95 1013.25 1013.69 1013.91 1013.96 1014.30 1014.10 1013.84 1013.49 1013.26 1013.04 1012.87 1012.72 1012.63 1012.36
1019.05 1018.67 1018.53 1018.44 1018.49 1018.37 1018.06 1017.63 1017.14 1016.59 1015.94 1015.37 1014.39 1014.01 1013.23 1012.27 1011.48 1011.12 1010.97 1010.85 1010.93 1011.14 1011.35 1011.64 1011.26 1011.63 1012.11 1012.19 1012.69 1013.02 1013.43 1013.63 1013.77 1014.13 1014.41 1014.06 1013.36 1012.78 1012.31 1012.21 1012.10 1011.93 1011.76
1019.35 1018.94 1018.77 1018.56 1018.32 1018.31 1017.99 1017.56 1016.94 1016.42 1015.77 1015.06 1014.33 1013.50 1012.77 1012.04 1011.57 1011.28 1011.10 1010.85 1010.53 1010.71 1011.06 1011.45 1011.61 1012.09 1012.15 1012.03 1012.46 1012.74 1013.21 1013.60 1013.68 1013.74 1013.90 1013.84 1013.37 1013.06 1012.04 1011.78 1011.56 1011.39 1011.23
1019.30 1018.97 1018.62 1018.41 1018.15 1018.09 1017.81 1017.33 1016.73 1016.26 1015.41 1014.57 1014.00 1013.47 1013.07 1012.46 1011.74 1011.27 1010.91 1010.72 1010.35 1010.44 1010.83 1011.22 1011.63 1011.97 1012.19 1012.51 1012.32 1012.77 1013.03 1013.39 1013.50 1013.53 1013.33 1013.14 1013.04 1012.97 1011.74 1011.41 1011.09 1010.96 1010.70
1019.05 1018.75 1018.62 1018.38 1018.03 1017.90 1017.58 1017.16 1016.52 1015.77 1014.94 1014.13 1013.54 1013.02 1012.50 1012.05 1011.56 1011.26 1010.91 1010.78 1010.56 1010.48 1010.85 1011.29 1011.58 1011.89 1012.52 1012.42 1012.79 1012.68 1012.87 1013.08 1013.18 1013.08 1012.83 1012.71 1012.44 1012.31 1012.12 1010.76 1010.47 1010.35 1009.97
1018.66 1018.53 1018.37 1018.12 1018.05 1017.77 1017.50 1016.93 1016.28 1015.58 1014.86 1014.17 1013.30 1012.54 1012.05 1011.56 1011.42 1011.23 1011.15 1010.90 1010.85 1011.01 1011.65 1011.56 1011.53 1012.08 1012.52 1013.00 1012.90 1012.96 1012.97 1012.85 1012.71 1012.41 1012.30 1012.02 1011.72 1011.10 1010.96 1010.56 1009.94 1009.66 1009.22
1018.21 1018.13 1018.12 1017.88 1017.98 1017.66 1017.28 1016.77 1016.21 1015.42 1014.88 1014.27 1013.65 1012.92 1012.31 1011.67 1011.38 1011.27 1011.13 1011.17 1011.45 1011.88 1011.91 1011.93 1012.34 1012.89 1013.16 1013.10 1013.05 1013.40 1013.32 1013.15 1012.81 1012.47 1011.98 1011.48 1011.10 1010.68 1009.90 1009.81 1009.09 1008.65 1008.38
1017.71 1017.73 1017.72 1017.69 1017.88 1017.68 1017.23 1016.58 1016.15 1015.69 1015.13 1014.60 1014.01 1013.48 1012.86 1012.32 1011.83 1011.65 1011.68 1011.92 1012.09 1012.36 1012.00 1011.76 1012.61 1013.57 1013.11 1012.57 1013.54 1013.62 1013.78 1013.16 1013.21 1012.99 1012.72 1012.36 1011.71 1011.21 1010.41 1009.51 1008.78 1008.45 1008.31
1017.15 1017.15 1017.26 1017.36 1017.54 1017.51 1017.20 1016.82 1016.32 1015.90 1015.50 1014.96 1014.40 1013.90 1013.58 1013.21 1012.85 1012.67 1012.80 1012.82 1013.08 1013.20 1012.91 1013.46 1013.33 1013.19 1013.05 1013.01 1013.20 1013.66 1013.70 1013.32 1013.44 1013.48 1013.10 1012.72 1012.45 1011.94 1011.35 1010.78 1010.05 1009.44 1009.13
1016.48 1016.69 1016.89 1016.96 1017.15 1017.07 1016.95 1016.75 1016.56 1016.23 1015.66 1015.14 1014.73 1014.53 1014.26 1014.02 1013.86 1013.81 1013.84 1013.54 1013.50 1013.39 1014.08 1014.31 1013.84 1013.47 1013.52 1013.44 1013.67 1013.98 1013.74 1013.66 1013.74 1013.38 1013.13 1012.90 1012.81 1012.18 1011.90 1011.31 1011.12 1010.54 1010.13
1015.84 1016.17 1016.47 1016.68 1016.96 1016.93 1016.83 1016.63 1016.47 1016.25 1015.95 1015.59 1015.19 1015.06 1014.82 1014.59 1014.42 1014.33 1014.30 1014.30 1014.46 1014.49 1014.45 1014.42 1014.23 1014.16 1014.04 1013.85 1014.16 1014.14 1014.32 1014.00 1013.77 1013.28 1013.29 1013.12 1012.91 1012.59 1012.34 1011.93 1011.65 1010.94 1010.86
1015.30 1015.73 1016.04 1016.27 1016.54 1016.60 1016.48 1016.49 1016.37 1016.21 1015.92 1015.74 1015.54 1015.41 1015.23 1014.98 1014.89 1014.85 1014.76 1014.69 1014.71 1014.68 1014.75 1014.81 1014.71 1014.49 1014.36 1014.40 1014.59 1014.95 1014.76 1014.21 1013.62 1013.78 1013.72 1013.56 1013.37 1013.03 1012.82 1012.65 1012.12 1011.69 1011.61
1014.74 1015.24 1015.72 1015.94 1016.07 1016.26 1016.28 1016.11 1016.08 1016.07 1016.07 1015.93 1015.66 1015.58 1015.48 1015.30 1015.28 1015.20 1015.18 1015.25 1015.27 1015.30 1015.28 1015.16 1014.95 1014.74 1014.79 1015.11 1015.25 1015.09 1014.58 1014.33 1014.16 1014.07 1014.16 1014.05 1013.68 1013.41 1013.18 1012.77 1012.32 1012.19 1012.02
1013.97 1014.48 1015.21 1015.45 1015.55 1015.82 1015.97 1016.02 1016.09 1016.08 1016.06 1016.04 1015.99 1015.97 1015.98 1015.90 1015.73 1015.64 1015.54 1015.45 1015.39 1015.40 1015.35 1015.29 1015.24 1015.23 1015.19 1015.06 1014.89 1014.71 1014.62 1014.59 1014.47 1014.38 1014.28 1013.94 1013.69 1013.59 1013.27 1012.87 1012.65 1012.38 1011.98
1013.31 1013.64 1014.13 1014.54 1014.89 1015.20 1015.47 1015.57 1015.64 1015.67 1015.74 1015.88 1015.96 1016.01 1016.04 1016.00 1015.92 1015.84 1015.81 1015.77 1015.69 1015.65 1015.59 1015.47 1015.34 1015.23 1015.08 1014.89 1014.70 1014.66 1014.62 1014.49 1014.32 1014.20 1014.06 1013.91 1013.71 1013.33 1013.02 1012.76 1012.45 1012.06 1011.65
1012.30 1012.42 1012.80 1013.39 1013.89 1014.21 1014.64 1015.01 1015.11 1015.32 1015.54 1015.71 1015.81 1015.86 1015.89 1015.89 1015.88 1015.88 1015.89 1015.83 1015.78 1015.69 1015.56 1015.46 1015.36 1015.22 1014.98 1014.70 1014.47 1014.36 1014.44 1014.54 1014.57 1014.44 1014.14 1013.88 1013.52 1013.15 1012.77 1012.44 1012.10 1011.75 1011.30
1011.48 1011.63 1011.81 1012.27 1012.70 1013.14 1013.68 1014.25 1014.59 1014.94 1015.17 1015.36 1015.54 1015.65 1015.77 1015.95 1016.06 1016.07 1016.09 1016.07 1016.01 1015.87 1015.78 1015.63 1015.47 1015.32 1015.01 1014.66 1014.45 1014.52 1014.66 1014.68 1014.62 1014.37 1014.00 1013.61 1013.26 1012.96 1012.54 1012.05 1011.61 1011.30 1010.99
1010.90 1010.92 1011.09 1011.36 1011.83 1012.42 1013.09 1013.49 1014.07 1014.55 1014.96 1015.22 1015.30 1015.34 1015.42 1015.51 1015.57 1015.69 1015.81 1015.87 1015.84 1015.84 1015.75 1015.60 1015.40 1015.23 1014.93 1014.63 1014.35 1014.26 1014.29 1014.20 1014.09 1013.91 1013.78 1013.50 1013.03 1012.65 1012.14 1011.67 1011.22 1010.83 1010.45
1010.43 1010.35 1010.37 1010.59 1011.08 1011.67 1012.12 1012.93 1013.69 1014.13 1014.57 1014.82 1014.95 1015.11 1015.30 1015.42 1015.53 1015.63 1015.70 1015.69 1015.70 1015.69 1015.61 1015.45 1015.33 1015.21 1014.92 1014.64 1014.41 1014.27 1014.24 1013.99 1013.86 1013.69 1013.47 1013.22 1012.80 1012.33 1011.95 1011.40 1010.97 1010.45 1009.79
1009.93 1009.79 1009.94 1010.39 1010.71 1011.19 1011.86 1012.66 1013.24 1013.69 1014.10 1014.31 1014.63 1014.98 1015.18 1015.33 1015.41 1015.44 1015.48 1015.45 1015.49 1015.48 1015.42 1015.37 1015.31 1015.11 1015.09 1014.82 1014.55 1014.36 1014.23 1014.01 1013.74 1013.49 1013.21 1013.07 1012.68 1012.18 1011.70 1011.17 1010.60 1009.85 1009.24
1009.62 1009.54 1009.49 1009.75 1010.02 1010.80 1011.64 1012.37 1013.00 1013.27 1013.35 1013.82 1014.18 1014.51 1014.65 1014.86 1015.06 1015.22 1015.32 1015.34 1015.41 1015.39 1015.41 1015.37 1015.31 1015.17 1015.02 1014.89 1014.63 1014.38 1014.08 1013.98 1013.76 1013.47 1013.04 1012.65 1012.24 1011.72 1011.15 1010.68 1010.19 1009.52 1008.74
1009.24 1009.22 1009.45 1009.55 1009.72 1010.30 1011.17 1011.78 1012.11 1012.21 1012.86 1013.30 1013.61 1013.81 1014.07 1014.34 1014.49 1014.86 1015.06 1015.18 1015.31 1015.39 1015.47 1015.49 1015.48 1015.34 1015.16 1015.03 1014.84 1014.42 1014.20 1013.95 1013.76 1013.39 1012.93 1012.44 1011.88 1011.27 1010.80 1010.26 1009.83 1009.21 1008.38
1009.03 1008.99 1009.12 1009.24 1009.57 1009.99 1010.30 1010.65 1010.62 1011.35 1011.93 1012.42 1012.89 1013.41 1013.72 1013.75 1014.09 1014.53 1014.74 1014.93 1015.06 1015.23 1015.37 1015.49 1015.45 1015.27 1015.03 1014.89 1014.65 1014.28 1013.92 1013.73 1013.42 1013.07 1012.53 1011.94 1011.45 1011.11 1010.51 1010.08 1009.52 1009.03 1008.55
1008.34 1008.52 1008.93 1009.14 1009.21 1009.37 1009.57 1009.54 1010.08 1010.69 1011.36 1011.97 1012.61 1013.07 1013.59 1013.93 1013.92 1014.08 1014.28 1014.51 1014.73 1014.91 1014.91 1014.98 1014.97 1014.82 1014.62 1014.40 1014.23 1013.89 1013.55 1013.26 1012.98 1012.58 1012.08 1011.79 1011.52 1011.08 1010.50 1009.84 1009.46 1009.06 1008.48
1007.55 1007.75 1008.03 1008.35 1008.46 1008.66 1008.90 1009.19 1009.71 1010.27 1011.06 1011.76 1012.28 1012.83 1013.05 1013.28 1013.55 1013.68 1013.86 1014.09 1014.19 1014.16 1014.20 1014.22 1014.21 1014.20 1014.19 1013.98 1013.71 1013.50 1013.23 1012.95 1012.73 1012.25 1012.19 1011.93 1011.55 1011.03 1010.46 1009.86 1009.39 1008.88 1008.36
1006.73 1007.07 1007.22 1007.31 1007.26 1007.69 1008.09 1008.51 1009.07 1009.70 1010.40 1011.21 1011.81 1012.25 1012.60 1013.07 1013.26 1013.50 1013.73 1013.71 1013.57 1013.56 1013.65 1013.62 1013.61 1013.57 1013.56 1013.48 1013.33 1013.14 1012.95 1012.76 1012.64 1012.60 1012.46 1012.01 1011.51 1011.07 1010.54 1009.96 1009.32 1008.68 1008.11
Thickness
5580 5580 5576 5570 5565 5560 5557 5553 5553 5556 5556 5561 5565 5571 5579 5584 5591 5601 5607 5615 5620 5625 5627 5629 5633 5637 5637 5636 5635 5636 5636 5637 5639 5639 5642 5648 5653 5656 5659 5660 5662 5663 5665
5573 5573 5569 5563 5554 5547 5542 5539 5537 5537 5538 5538 5545 5548 5556 5567 5579 5586 5591 5598 5603 5609 5614 5617 5625 5626 5627 5629 5626 5626 5627 5629 5628 5627 5625 5631 5642 5649 5653 5655 5657 5659 5659
5565 5566 5563 5557 5549 5537 5531 5529 5527 5524 5520 5518 5521 5527 5537 5549 5557 5562 5571 5577 5585 5593 5601 5606 5611 5612 5615 5618 5617 5618 5618 5617 5619 5620 5620 5619 5626 5633 5643 5647 5650 5652 5654
5561 5562 5560 5554 5545 5535 5527 5523 5520 5510 5499 5495 5495 5500 5510 5523 5535 5542 5552 5560 5569 5579 5587 5594 5600 5599 5601 5602 5606 5606 5608 5609 5612 5611 5614 5618 5620 5622 5635 5639 5642 5642 5645
5560 5558 5555 5550 5544 5534 5526 5516 5513 5503 5489 5482 5481 5486 5497 5507 5517 5527 5536 5544 5554 5563 5572 5581 5588 5590 5588 5594 5593 5596 5599 5600 5604 5606 5608 5610 5613 5615 5614 5630 5637 5635 5639
5563 5561 5557 5550 5540 5532 5523 5515 5509 5498 5484 5475 5473 5480 5488 5497 5505 5513 5522 5531 5539 5549 5557 5567 5577 5578 5579 5581 5584 5587 5589 5593 5597 5602 5605 5607 5609 5614 5612 5615 5624 5628 5635
5568 5563 5555 5549 5540 5533 5523 5515 5506 5498 5485 5474 5468 5469 5477 5488 5497 5506 5514 5522 5528 5537 5551 5555 5559 5561 5561 5568 5574 5573 5575 5580 5585 5590 5597 5601 5605 5608 5614 5612 5618 5621 5627
5572 5566 5559 5551 5540 5533 5525 5519 5508 5497 5487 5477 5470 5464 5466 5473 5485 5495 5504 5510 5518 5527 5540 5544 5547 5546 5554 5566 5560 5563 5561 5569 5570 5574 5577 5581 5587 5590 5597 5605 5611 5610 5611
5576 5570 5562 5553 5543 5535 5527 5520 5511 5500 5489 5482 5477 5472 5466 5466 5473 5485 5492 5500 5508 5519 5531 5532 5537 5543 5553 5558 5559 5554 5553 5559 5559 5560 5564 5567 5569 5572 5576 5580 5586 5593 5593
5581 5572 5563 5555 5546 5539 5530 5523 5515 5506 5497 5489 5484 5478 5473 5471 5474 5480 5487 5498 5506 5516 5516 5521 5529 5539 5544 5548 5547 5545 5546 5548 5548 5552 5554 5555 5555 5559 5560 5563 5561 5568 5572
5583 5572 5564 5555 5546 5539 5532 5526 5520 5514 5506 5498 5491 5485 5482 5482 5483 5486 5492 5498 5504 5510 5513 5518 5524 5529 5535 5538 5535 5536 5534 5537 5539 5543 5542 5543 5543 5545 5546 5548 5548 5557 5558
5584 5573 5565 5557 5548 5542 5536 5530 5523 5518 5515 5508 5503 5497 5491 5491 5493 5496 5499 5503 5507 5511 5513 5516 5519 5523 5526 5527 5526 5522 5522 5526 5529 5528 5528 5531 5531 5531 5532 5534 5537 5542 5544
5585 5574 5564 5557 5551 5544 5539 5535 5530 5523 5517 5512 5510 5506 5503 5502 5500 5501 5502 5504 5506 5509 5510 5510 5513 5517 5518 5515 5515 5516 5521 5521 5519 5518 5517 5520 5524 5524 5526 5529 5532 5531 5533
5588 5578 5566 5559 5554 5548 5542 5536 5531 5526 5521 5516 5512 5507 5505 5504 5504 5504 5505 5507 5507 5508 5508 5509 5510 5511 5513 5513 5515 5516 5516 5515 5515 5515 5515 5516 5518 5518 5519 5522 5521 5523 5524
5590 5584 5575 5566 5557 5551 5545 5540 5535 5530 5526 5520 5516 5512 5509 5507 5506 5506 5506 5506 5506 5506 5507 5508 5509 5510 5511 5513 5513 5512 5511 5511 5511 5511 5511 5511 5510 5511 5511 5512 5512 5513 5515
5598 5592 5585 5575 5565 5556 5551 5544 5539 5533 5528 5523 5518 5515 5512 5509 5508 5507 5505 5505 5505 5505 5505 5505 5505 5506 5507 5508 5509 5508 5504 5502 5500 5499 5499 5499 5500 5501 5502 5502 5502 5503 5504
5602 5595 5590 5583 5574 5564 5557 5548 5541 5535 5529 5524 5520 5516 5513 5509 5506 5504 5502 5501 5500 5499 5499 5499 5498 5498 5498 5500 5500 5497 5492 5489 5487 5486 5486 5486 5486 5485 5485 5488 5489 5488 5487
5599 5596 5590 5583 5576 5567 5557 5551 5544 5537 5530 5524 5521 5518 5514 5510 5507 5503 5501 5498 5497 5495 5494 5493 5493 5492 5493 5493 5493 5490 5484 5481 5478 5475 5472 5470 5469 5467 5469 5470 5471 5471 5469
5596 5593 5591 5586 5578 5570 5563 5554 5544 5537 5531 5526 5522 5518 5513 5509 5506 5502 5499 5496 5494 5492 5490 5489 5486 5484 5482 5482 5480 5476 5471 5469 5464 5460 5457 5455 5453 5452 5450 5451 5451 5452 5451
5596 5595 5590 5582 5577 5569 5560 5551 5543 5536 5531 5526 5520 5514 5510 5506 5502 5499 5496 5493 5490 5487 5484 5481 5477 5475 5470 5468 5465 5462 5457 5454 5451 5445 5441 5436 5433 5431 5429 5428 5429 5432 5433
5594 5594 5588 5582 5578 5567 5558 5549 5540 5534 5531 5525 5518 5512 5508 5503 5498 5493 5489 5486 5482 5479 5474 5471 5466 5463 5459 5453 5450 5446 5443 5438 5433 5426 5421 5415 5409 5406 5402 5398 5399 5401 5406
5590 5590 5582 5577 5572 5564 5556 5547 5541 5538 5528 5522 5517 5512 5506 5499 5494 5487 5482 5477 5472 5466 5461 5455 5451 5447 5442 5438 5432 5429 5422 5417 5410 5405 5398 5392 5385 5378 5372 5368 5365 5367 5371
5581 5581 5575 5572 5566 5558 5555 5548 5546 5535 5527 5519 5511 5504 5499 5494 5487 5479 5473 5467 5461 5454 5448 5441 5436 5431 5427 5420 5416 5411 5405 5397 5390 5382 5375 5369 5363 5358 5356 5351 5348 5347 5348
5576 5571 5565 5559 5557 5551 5549 5547 5537 5529 5521 5512 5503 5494 5485 5480 5477 5471 5465 5458 5450 5443 5438 5431 5425 5419 5414 5408 5401 5394 5387 5378 5368 5361 5355 5350 5346 5341 5339 5337 5334 5332 5332
5569 5564 5559 5554 5551 5544 5541 5533 5527 5520 5510 5501 5492 5484 5478 5475 5466 5461 5455 5448 5442 5436 5428 5422 5416 5407 5399 5393 5387 5379 5370 5360 5352 5348 5340 5335 5332 5329 5325 5323 5321 5321 5321
5562 5556 5552 5550 5548 5539 5534 5525 5518 5510 5502 5492 5482 5475 5470 5461 5455 5449 5441 5438 5434 5428 5421 5415 5408 5400 5392 5383 5374 5364 5354 5345 5340 5331 5324 5321 5320 5318 5315 5312 5311 5310 5311